カタログに戻る

STARLINK-5350

運用中通信VLEO
NORAD 56419·PAYLOAD·🇺🇸 United States

打ち上げ May 4, 2023 から Cape Canaveral Space Force Station

Loading…

次のパス (今後24時間)

TLE

最新Source: CelesTrak SupGP

元期: Sep 14, 2026, 21:02 UTC

1 56419C 23061AX  26257.87687500  .00001558  00000+0  56423-4 0  2579
2 56419  42.9998 198.7263 0001346 254.1731 222.6191 15.27573386    12

AllMySatでSTARLINK-5350をリアルタイム追跡

Download on the App Store